CW9769 Weather Reports


Display with metric or nautical units.
time (UTC)temp
F
wind
direction
speed
MPH
gust
MPH
rain 1hr
in
rain 24hr
in
rain mn
in
humidity
%
barometer
mb
20260503013155 41 241 2.0 5.0 0.00 0.15 0.04 75 1016.3
20260503012154 42 246 1.0 5.0 0.00 0.15 0.04 73 1016.3
20260503011153 42 245 2.0 4.0 0.00 0.15 0.04 73 1016.3
20260503010152 42 256 1.0 2.0 0.00 0.15 0.04 73 1016.3
20260503005151 42 256 1.0 3.0 0.00 0.15 0.04 72 1016.3
20260503004048 42 256 1.0 3.0 0.00 0.15 0.04 70 1016.3
20260503003047 42 263 1.0 2.0 0.00 0.15 0.04 69 1016.3
20260503002046 43 325 1.0 2.0 0.00 0.15 0.04 65 1015.9
20260503001046 43 325 1.0 1.0 0.00 0.15 0.04 67 1015.9
20260503000045 43 325 1.0 2.0 0.00 0.15 0.04 65 1016.3
20260502235043 43 325 1.0 2.0 0.00 0.15 0.04 64 1016.3
20260502234011 43 325 1.0 3.0 0.00 0.15 0.04 61 1015.9
20260502233010 44 325 1.0 3.0 0.00 0.15 0.04 62 1015.9
20260502232009 44 10 1.0 3.0 0.00 0.15 0.04 58 1015.9
20260502231008 44 10 1.0 3.0 0.00 0.15 0.04 61 1015.9
20260502230008 44 348 2.0 6.0 0.00 0.15 0.04 60 1015.9
20260502225007 43 355 2.0 8.0 0.00 0.15 0.04 61 1016.3
20260502224006 43 25 3.0 8.0 0.00 0.15 0.04 59 1016.3
20260502223005 44 344 5.0 10.0 0.00 0.15 0.04 62 1016.3
20260502221933 44 25 4.0 10.0 0.00 0.15 0.04 59 1016.3
20260502220932 44 12 3.0 10.0 0.00 0.15 0.04 60 1016.3
20260502215900 45 9 5.0 10.0 0.00 0.15 0.04 57 1016.3
20260502214900 44 61 2.0 10.0 0.00 0.15 0.04 56 1016.3
20260502213828 44 10 4.0 11.0 0.00 0.15 0.04 60 1016.4
20260502212827 44 11 7.0 11.0 0.00 0.15 0.04 60 1016.4
20260502211826 44 19 7.0 10.0 0.00 0.15 0.04 60 1016.3
20260502210825 44 31 6.0 10.0 0.00 0.15 0.04 58 1016.3
20260502205824 44 19 5.0 7.0 0.00 0.15 0.04 58 1016.3
20260502204823 44 315 1.0 8.0 0.00 0.15 0.04 59 1016.3
20260502203720 44 333 3.0 9.0 0.00 0.15 0.04 59 1016.3
20260502202648 44 355 5.0 10.0 0.00 0.15 0.04 59 1016.4
20260502201646 44 0 7.0 11.0 0.00 0.15 0.04 59 1016.4
20260502200645 44 6 6.0 13.0 0.00 0.15 0.04 59 1016.7
20260502195613 44 8 8.0 13.0 0.00 0.15 0.04 61 1016.7
20260502194612 44 11 4.0 12.0 0.00 0.15 0.04 59 1016.7
20260502193611 44 30 9.0 12.0 0.00 0.15 0.04 59 1016.7
20260502192610 45 20 6.0 14.0 0.00 0.15 0.04 56 1016.8
20260502191610 46 17 6.0 14.0 0.00 0.15 0.04 53 1016.8
20260502190609 47 352 3.0 12.0 0.00 0.15 0.04 57 1017.2
20260502185608 46 356 8.0 12.0 0.00 0.15 0.04 53 1017.2
20260502184607 46 77 3.0 10.0 0.00 0.15 0.04 55 1017.1
20260502183607 45 21 4.0 10.0 0.00 0.16 0.04 58 1017.1
20260502182606 45 9 2.0 11.0 0.00 0.16 0.04 53 1017.1
20260502181534 45 359 7.0 13.0 0.00 0.17 0.04 60 1017.1
20260502180533 45 23 8.0 13.0 0.00 0.18 0.04 55 1017.1
20260502170426 43 76 3.0 11.0 0.00 0.19 0.04 62 1017.4
20260502163424 43 47 2.0 9.0 0.00 0.20 0.04 73 1017.7
20260502162423 43 45 4.0 9.0 0.00 0.20 0.04 70 1017.4
20260502161421 43 61 5.0 12.0 0.00 0.20 0.04 67 1017.4
20260502160420 42 52 3.0 12.0 0.00 0.20 0.04 72 1017.7
20260502151406 41 101 3.0 8.0 0.00 0.26 0.04 79 1017.7
20260502150405 41 113 3.0 9.0 0.00 0.27 0.04 80 1017.7
20260502130221 37 52 4.0 12.0 0.00 0.44 0.04 90 1016.6
20260502123218 37 69 4.0 11.0 0.01 0.45 0.04 91 1016.6
20260502122217 36 54 4.0 8.0 0.01 0.45 0.04 92 1016.6
20260502121216 36 62 4.0 8.0 0.01 0.45 0.04 91 1016.3
20260502120143 36 69 3.0 8.0 0.01 0.45 0.04 92 1016.3
20260502115141 36 62 3.0 6.0 0.01 0.46 0.04 93 1016.3
20260502114109 35 50 3.0 6.0 0.01 0.45 0.03 93 1016.0
20260502113108 35 58 2.0 8.0 0.01 0.45 0.03 94 1016.0
20260502112108 35 37 3.0 13.0 0.01 0.45 0.03 93 1016.0
20260502111107 35 40 5.0 15.0 0.01 0.45 0.03 92 1015.7
20260502110106 35 37 10.0 15.0 0.01 0.45 0.03 92 1015.7
20260502105105 36 18 8.0 14.0 0.01 0.45 0.03 92 1015.7
20260502104105 36 15 8.0 14.0 0.00 0.45 0.02 91 1015.4
20260502103104 36 336 6.0 10.0 0.00 0.45 0.02 93 1015.4
20260502102103 36 346 4.0 7.0 0.01 0.45 0.02 93 1015.3
20260502101103 36 5 3.0 6.0 0.01 0.45 0.02 92 1015.4
20260502091059 37 106 0.0 0.0 0.00 0.44 0.01 94 1015.0
20260502071049 39 238 0.0 0.0 0.00 0.44 0.01 92 1014.7
20260502070017 39 238 0.0 1.0 0.00 0.44 0.01 92 1014.7
20260502065016 39 238 0.0 3.0 0.01 0.44 0.01 91 1015.0
20260502063842 40 268 2.0 3.0 0.01 0.44 0.01 92 1015.0
20260502062841 40 312 0.0 3.0 0.01 0.44 0.01 91 1015.0
20260502061839 40 313 1.0 3.0 0.01 0.44 0.01 91 1015.0
20260502060838 40 304 2.0 2.0 0.01 0.44 0.01 92 1015.0
20260502055838 40 309 1.0 2.0 0.01 0.44 0.01 92 1015.0
20260502054837 40 288 1.0 2.0 0.00 0.43 0.00 93 1015.4
20260502053804 40 288 1.0 2.0 0.00 0.43 0.00 93 1015.4
20260502052804 39 300 0.0 2.0 0.00 0.43 0.00 92 1015.4
20260502051803 39 300 1.0 2.0 0.00 0.43 0.00 92 1015.4
20260502050802 40 301 1.0 2.0 0.00 0.43 0.00 92 1015.4
20260502045802 39 300 2.0 2.0 0.00 0.43 0.00 92 1015.4
20260502044801 39 291 0.0 2.0 0.00 0.43 0.00 92 1015.4
20260502043729 39 291 1.0 1.0 0.00 0.43 0.00 91 1015.4
20260502042657 40 291 1.0 2.0 0.00 0.43 0.00 90 1015.4
20260502041656 40 291 1.0 3.0 0.00 0.43 0.00 90 1015.7
20260502040656 40 282 1.0 5.0 0.01 0.43 0.00 89 1015.4
20260502035655 40 260 2.0 5.0 0.05 0.43 0.43 89 1015.4
20260502034654 40 269 2.0 5.0 0.09 0.43 0.43 90 1015.4
20260502033653 40 262 1.0 2.0 0.11 0.43 0.43 90 1015.7
20260502032652 39 252 1.0 4.0 0.11 0.43 0.43 90 1015.4
20260502031652 40 297 0.0 4.0 0.11 0.43 0.43 89 1015.7
20260502030651 40 352 3.0 13.0 0.10 0.42 0.42 88 1015.7
20260502025650 40 344 5.0 14.0 0.06 0.38 0.38 89 1015.7
20260502024615 42 351 9.0 13.0 0.01 0.33 0.33 87 1015.8
20260502023615 43 11 5.0 9.0 0.00 0.32 0.32 86 1015.5
20260502022614 42 265 1.0 2.0 0.00 0.32 0.32 86 1015.5
20260502021613 42 265 1.0 3.0 0.00 0.32 0.32 85 1015.5
20260502020612 42 265 1.0 3.0 0.00 0.32 0.32 86 1015.1
20260502015611 42 258 1.0 2.0 0.00 0.32 0.32 87 1015.5
20260502014611 41 254 1.0 2.0 0.00 0.32 0.32 86 1015.1
20260502013538 41 260 1.0 2.0 0.00 0.32 0.32 85 1015.1